Dewpoint
59 51 49 47 50 45 40 37 20 25 27 25 25 23 14 18 22 11 11 11 29 34 49 55 54 53 50 55 58 59 60 58 58 44 45 65 69 70 70 71 72 72 72 74 74 74 74 74 74 73 74 74 74 73 73 72 72 72 71 71 70 70 70 70 71 71 71 71 71 72 73 72 72 72 72 72 72 72 71 72 71 71 72 72 71 71 71 71 71 71 71 71 71 71 71 71 71
53 50 43 42 47 35 29 35 27 25 22 20 19 18 16 13 9 7 7 22 31 47 54 55 56 58 59 59 58 59 62 63 64 64 66 68 69 70 70 72 72 72 73 73 73 73 73 73 73 74 74 74 73 73 72 72 72 72 71 71 70 70 71 70 70 70 71 71 72 73 73 72 72 72 72 72 72 72 72 71 71 72 72 72 71 71 71 71 71 71 71 70 71 71 71 71 71
60 47 32 41 43 37 34 29 27 26 20 18 18 15 15 12 5 10 14 30 51 54 54 55 56 55 55 56 55 57 57 64 65 65 66 67 66 69 71 72 72 73 73 73 73 73 73 73 73 73 73 73 73 73 72 72 72 72 71 71 71 70 70 70 70 70 71 71 71 72 72 72 72 72 72 72 72 72 72 72 71 71 72 71 71 71 71 71 70 71 70 70 70 70 70 71 71
54 49 36 40 34 32 29 24 29 24 20 19 18 16 12 10 4 13 15 25 50 48 48 50 50 54 55 57 58 61 61 63 65 65 65 66 67 69 71 72 73 72 73 73 73 73 73 73 73 73 73 73 73 73 72 72 72 71 71 70 70 70 70 70 71 71 71 71 71 72 72 72 72 72 72 72 72 72 72 72 71 72 71 71 71 71 71 71 71 71 71 71 71 71 71 70 70
47 50 41 37 31 34 28 26 20 23 21 18 15 15 18 7 3 6 14 15 25 45 50 52 55 59 60 57 59 58 61 64 65 66 66 67 69 69 70 71 71 72 72 72 73 72 72 73 73 73 73 73 73 73 72 72 71 71 71 70 70 70 69 70 70 71 71 71 72 72 72 72 72 72 72 72 72 71 71 71 72 71 71 71 71 71 71 71 71 70 70 71 71 70 70 69 69
41 37 41 34 30 33 20 23 22 17 19 17 12 12 11 7 8 9 14 18 40 50 51 52 54 57 62 63 65 62 64 63 65 66 66 67 68 69 70 71 71 71 72 72 72 72 73 73 73 73 73 73 73 72 72 71 71 71 71 70 70 70 69 70 70 71 72 72 72 72 72 72 72 72 72 71 71 71 71 71 71 71 70 71 71 70 70 71 71 71 71 70 70 69 69 68 69
32 31 30 31 29 23 22 23 20 20 20 14 13 13 7 7 7 15 13 30 50 53 55 57 61 60 59 63 65 66 66 66 65 66 67 68 68 69 70 70 71 71 72 72 72 72 73 73 73 73 73 73 72 72 72 71 71 71 70 70 70 70 69 70 70 70 71 72 72 72 72 72 72 72 72 71 71 71 71 71 72 72 71 71 71 71 71 71 71 70 70 69 69 69 68 68 68
43 29 31 26 25 18 18 13 13 17 16 19 18 15 15 13 10 10 12 16 43 51 55 56 59 62 62 65 63 66 66 66 66 67 67 67 68 69 70 70 70 71 71 72 72 72 73 73 73 73 73 72 72 72 72 71 71 70 70 70 70 69 69 70 70 70 71 72 72 72 72 72 72 72 72 72 71 71 71 71 71 71 71 71 71 71 71 70 70 70 69 69 68 68 68 68 68
34 31 33 20 23 27 19 11 10 12 13 14 14 19 37 18 16 13 10 11 35 49 52 57 58 59 62 64 64 65 66 66 67 68 67 67 68 69 69 70 70 70 71 71 72 72 72 72 73 72 72 72 72 71 71 71 71 70 70 70 70 70 70 70 70 70 72 72 72 72 72 72 72 72 72 71 71 71 70 70 71 71 71 70 70 70 70 69 70 69 69 69 68 68 68 68 68
30 31 27 23 22 22 19 19 17 13 10 10 9 10 10 9 8 10 10 10 38 52 53 59 61 61 63 63 65 65 65 66 66 66 67 68 69 69 69 69 70 70 71 71 71 71 71 73 72 72 72 72 71 71 70 71 70 70 70 70 70 70 70 70 71 71 71 72 72 73 72 72 72 72 72 71 71 70 70 70 70 70 70 70 70 70 70 70 70 70 70 69 68 69 69 69 68
31 23 26 20 22 19 18 18 19 20 19 19 14 11 10 10 9 8 9 12 50 54 58 60 60 61 62 63 64 67 66 66 66 66 67 68 69 68 69 69 70 70 70 70 71 71 71 71 73 72 72 72 71 71 71 70 70 70 70 70 70 69 70 70 71 71 72 72 72 72 72 72 71 71 71 71 71 71 70 70 70 70 70 70 70 70 70 70 70 70 69 69 69 68 69 68 68
29 22 20 19 18 14 13 17 15 15 14 12 10 10 12 11 9 8 8 26 53 55 54 57 59 62 61 62 64 67 67 67 66 67 68 69 69 69 69 70 70 70 70 70 71 71 71 71 71 72 72 72 71 71 71 70 70 70 70 69 70 70 71 71 71 71 72 72 72 72 72 72 71 71 71 71 71 71 70 70 70 70 70 70 69 70 70 70 70 70 69 69 69 68 68 68 68
30 21 16 14 15 13 13 10 9 20 16 11 10 10 8 8 7 9 8 15 51 50 51 58 61 60 60 62 66 66 66 65 68 68 69 69 69 69 69 69 70 70 70 71 70 70 70 70 70 71 71 71 71 71 70 70 70 70 70 70 70 70 70 70 70 70 71 72 72 72 72 72 71 71 70 70 70 71 70 70 70 70 70 70 70 70 70 70 70 70 69 68 68 68 68 68 68
28 18 19 18 18 12 10 8 7 7 8 8 7 5 8 7 8 8 16 46 34 49 56 59 60 62 61 63 65 65 65 66 69 69 69 69 69 68 69 69 69 70 70 70 69 70 70 70 70 70 70 70 70 70 70 70 70 70 71 71 71 70 71 70 71 71 71 71 71 71 71 71 71 71 71 70 70 70 70 70 70 70 70 70 70 70 70 70 70 69 68 68 68 68 68 67 67
23 19 19 22 13 13 12 11 12 10 10 10 7 14 12 15 12 17 48 49 50 54 57 62 61 59 59 61 63 65 66 68 69 68 68 68 69 69 69 69 69 69 69 69 69 69 69 70 70 70 70 69 69 68 68 70 70 70 71 71 70 71 71 70 71 71 71 71 71 71 71 71 71 71 71 71 70 70 70 70 70 69 69 69 70 69 69 70 69 69 69 68 68 68 68 67 67
19 11 16 20 10 10 10 11 11 9 9 9 10 14 11 29 37 46 49 50 53 59 55 53 54 53 62 62 64 67 68 68 68 68 68 68 68 68 69 68 68 68 68 68 68 69 69 69 69 69 69 69 69 69 69 69 70 70 71 71 71 70 70 71 71 71 71 71 71 71 71 71 71 70 71 70 70 70 70 70 70 69 69 69 69 70 70 70 70 69 69 69 68 68 67 67 66
25 15 11 14 8 10 9 11 11 8 10 9 11 12 9 41 56 60 60 56 59 61 62 61 59 63 63 65 67 67 67 68 67 67 66 66 66 67 67 68 68 67 67 67 67 68 69 69 69 69 69 69 69 69 69 69 70 71 71 71 71 71 71 71 71 71 70 70 70 71 71 68 68 68 68 69 70 69 71 70 70 69 69 69 69 69 70 70 70 69 69 69 68 68 68 67 67
26 19 11 13 10 10 14 12 12 12 12 12 14 15 12 35 57 59 60 61 61 62 62 63 64 65 66 67 67 67 67 66 66 65 65 65 65 65 66 66 67 66 67 67 67 68 68 68 68 68 69 69 69 69 70 70 70 71 70 70 70 70 71 71 70 70 71 69 71 70 69 69 67 66 67 70 69 68 69 70 70 70 69 69 69 69 70 70 70 70 69 69 68 68 68 65 65
22 19 14 8 12 12 15 15 14 13 12 13 14 16 16 36 54 55 59 59 61 62 63 64 64 65 66 67 66 66 66 66 65 65 65 64 65 64 65 66 66 66 66 66 67 67 67 68 68 68 68 68 69 69 70 70 70 69 69 69 70 71 71 71 69 70 69 68 69 69 69 68 67 68 67 69 69 70 69 69 69 69 70 69 69 69 69 70 70 69 69 69 69 69 66 64 62
20 18 13 11 13 13 13 13 11 11 12 14 12 13 22 20 46 58 58 59 61 61 62 63 63 64 65 66 66 66 66 65 65 65 64 64 64 64 64 64 65 65 66 66 67 67 68 67 67 67 68 68 68 68 69 69 69 69 68 69 69 69 69 69 68 68 67 68 68 68 68 69 67 66 71 71 69 68 68 69 69 69 69 70 69 69 69 70 70 70 69 69 70 68 64 64 63
17 16 13 12 11 11 11 13 11 11 12 16 14 13 18 23 37 58 59 59 60 61 63 63 63 64 65 66 66 65 65 65 65 64 64 64 64 64 64 64 65 65 65 66 67 67 67 68 67 68 68 68 68 68 68 68 68 68 68 68 68 68 68 67 67 67 67 67 67 67 67 68 67 66 67 67 66 66 66 66 66 66 66 66 69 66 66 67 68 66 66 67 65 65 65 64 63
16 12 12 12 12 11 12 13 12 11 19 17 14 10 11 20 40 59 57 57 58 61 63 64 65 65 65 66 66 65 64 64 64 64 64 64 63 64 64 65 66 66 66 65 65 67 67 68 68 68 68 67 67 67 67 69 68 67 67 67 68 68 67 66 66 66 67 67 67 68 68 66 66 66 66 66 66 66 65 65 65 64 64 65 67 65 65 65 65 66 66 65 66 65 65 64 63
16 14 12 12 12 11 13 12 11 18 17 16 14 12 15 24 44 48 54 57 59 63 64 65 66 66 66 67 66 65 64 64 64 64 64 64 64 64 64 65 66 66 67 66 66 66 67 68 68 67 67 67 67 67 67 67 67 67 67 67 67 66 67 66 65 66 66 67 67 68 67 66 66 65 65 65 66 65 65 64 64 63 63 64 66 65 64 65 65 66 65 66 66 66 66 65 64
15 13 12 11 11 11 12 11 14 16 17 16 17 17 16 42 47 53 57 60 63 64 65 66 66 66 66 66 66 65 64 64 63 64 64 64 64 64 65 65 66 67 67 66 66 66 67 68 68 67 67 66 66 67 66 66 66 67 69 70 68 69 67 66 65 66 66 67 67 68 68 66 65 65 65 65 65 65 65 65 64 63 63 63 64 66 64 64 65 65 65 66 66 67 66 64 63
12 13 12 11 12 12 11 9 13 14 16 17 14 12 14 48 51 57 59 61 63 63 64 65 65 65 65 65 65 64 64 64 64 64 64 64 65 65 65 65 66 67 66 66 66 66 67 68 68 67 67 66 66 67 66 65 66 67 67 67 67 70 67 66 66 66 66 67 67 68 68 66 66 66 66 66 65 65 65 65 65 64 63 64 63 64 64 63 65 66 65 66 65 65 64 63 63
11 11 11 10 11 11 11 14 16 15 16 15 13 10 25 48 54 56 59 61 62 63 64 64 64 64 64 64 64 64 64 64 64 64 64 65 65 65 65 65 66 66 66 66 66 66 67 68 67 67 67 67 67 67 66 66 65 66 66 66 67 69 67 67 67 66 66 67 67 67 67 66 67 67 66 66 66 65 65 65 66 65 64 64 62 62 62 61 63 64 65 65 65 63 62 62 63
11 10 9 9 8 9 14 14 16 16 20 17 14 12 17 36 49 50 59 61 62 62 63 64 63 63 63 64 64 64 64 64 64 65 65 65 64 64 65 65 66 66 67 66 66 66 67 67 67 68 68 68 67 67 66 65 66 65 66 66 67 67 67 68 68 67 67 66 67 67 67 67 67 67 67 66 66 65 65 65 65 65 65 65 64 63 61 61 61 62 63 64 64 64 63 63 63
9 8 8 9 8 10 11 14 14 14 14 15 12 12 12 16 50 52 57 60 61 62 62 63 63 63 63 63 63 64 64 65 65 65 64 64 64 64 64 65 65 66 66 65 65 67 67 67 67 67 67 68 67 68 68 67 66 66 67 67 66 67 68 68 67 66 68 67 67 67 66 66 67 66 66 67 66 66 66 66 66 65 66 65 65 64 63 62 63 63 64 64 64 64 64 64 63
10 9 6 5 10 8 8 8 12 14 13 15 14 12 10 12 48 53 58 60 61 61 62 62 63 63 63 64 64 64 64 65 65 64 63 63 64 64 65 65 66 66 67 66 66 68 68 68 68 68 67 67 66 67 67 66 66 67 67 67 67 68 68 68 67 66 65 66 67 67 66 66 66 66 65 65 68 66 66 65 65 65 65 65 65 64 64 64 63 63 63 63 64 65 64 63 64
11 10 5 6 9 9 8 10 11 11 12 14 12 11 14 14 49 55 59 60 61 61 62 63 63 63 63 63 64 64 64 63 63 63 64 64 64 65 65 65 67 66 67 67 67 67 68 68 69 68 68 67 67 67 67 66 67 67 67 67 68 67 67 66 66 66 66 66 66 66 66 66 66 66 65 65 65 65 65 65 65 65 65 65 65 64 64 63 63 62 62 63 65 64 63 62 62
4 7 9 13 15 11 11 7 9 7 12 13 12 13 14 14 49 56 58 60 60 60 61 62 62 62 63 63 64 63 63 63 62 63 64 64 64 64 64 64 65 66 67 66 66 66 67 68 69 69 68 67 68 67 67 67 67 68 68 67 67 66 66 66 67 67 66 66 66 66 66 66 66 65 65 65 64 65 65 65 65 65 65 64 64 64 63 63 63 62 62 61 63 63 63 63 62
8 4 7 11 10 13 13 11 7 5 10 11 10 20 11 11 36 56 58 59 60 60 61 61 62 62 63 63 63 62 62 62 62 63 63 63 62 62 63 63 64 65 66 67 67 67 67 68 69 68 68 68 68 67 67 67 67 68 68 68 67 66 66 66 66 67 66 66 66 65 65 66 66 66 66 66 65 65 65 66 65 65 64 64 64 64 64 63 63 62 62 62 61 62 62 62 62
15 7 20 15 11 8 7 10 7 6 10 12 9 9 10 25 41 54 57 59 59 60 60 61 62 63 63 63 62 61 61 61 61 62 62 62 62 62 62 62 64 65 65 65 66 67 67 68 69 68 67 67 67 67 67 67 67 67 68 68 68 67 66 65 66 67 67 66 66 66 65 65 65 65 66 66 65 65 64 64 65 65 65 64 64 63 63 63 62 63 62 63 62 62 62 62 61
15 14 11 17 7 9 7 8 8 7 9 12 9 8 22 34 48 55 57 58 59 60 60 61 62 62 62 61 61 60 60 61 61 61 62 62 63 64 64 65 64 64 65 65 65 65 65 65 67 68 68 68 67 67 67 67 68 67 67 67 68 67 66 66 66 66 66 66 66 66 65 65 65 65 65 65 64 64 64 64 64 65 65 65 64 64 64 63 63 63 63 63 63 62 62 62 61
13 14 12 11 11 10 6 6 6 7 9 11 12 27 38 44 52 54 56 58 59 60 60 61 61 60 60 60 60 60 60 60 61 62 63 63 64 64 64 64 64 64 64 64 64 65 65 64 65 67 68 67 67 68 67 67 66 66 66 66 67 66 66 67 66 66 65 65 65 65 65 65 66 65 65 65 64 64 64 64 63 64 66 65 65 64 64 64 63 63 63 63 63 63 62 62 62
9 14 13 12 10 6 6 5 7 7 9 8 15 39 46 47 49 53 55 59 59 60 59 59 59 59 59 59 60 60 61 61 63 64 64 64 64 64 64 64 64 64 64 64 65 65 64 64 65 66 67 67 67 66 66 65 66 65 65 66 66 66 65 66 66 66 65 65 65 65 64 64 65 65 64 64 63 63 64 63 63 64 65 65 65 64 64 63 63 63 63 63 62 62 62 61 61
11 13 10 6 5 6 8 5 6 7 7 25 49 50 50 51 51 52 54 56 57 58 58 58 58 58 59 59 60 60 60 60 62 62 63 64 65 66 65 65 65 65 65 64 63 63 64 64 65 66 66 66 65 64 64 64 63 63 63 65 64 66 66 65 65 65 65 65 64 65 64 64 64 65 65 64 63 63 64 63 63 64 64 65 65 64 64 63 63 62 62 62 62 62 61 61 62
7 10 11 7 7 4 5 4 5 9 22 41 51 51 51 52 53 54 56 56 56 57 57 57 58 59 59 59 58 59 60 61 60 60 61 61 62 62 63 63 63 63 64 64 65 66 66 66 66 66 65 65 65 65 65 64 64 64 64 64 63 64 66 65 65 65 65 65 65 65 65 64 63 64 65 65 64 64 64 64 64 64 64 65 65 65 63 64 63 63 63 62 62 62 61 61 62
13 9 8 8 8 12 7 6 6 18 44 47 51 50 51 52 54 55 55 55 56 57 57 58 58 58 58 58 58 58 59 58 59 59 60 61 61 61 61 61 61 62 61 62 63 63 64 65 64 64 64 64 64 66 65 64 64 65 64 64 64 65 64 64 64 64 65 65 65 65 65 65 64 64 64 65 65 65 64 64 65 65 64 64 64 65 65 65 64 64 64 63 61 61 62 63 63
15 15 14 9 9 11 9 9 6 18 43 48 50 49 50 52 53 54 55 55 56 57 58 58 58 58 57 57 57 57 57 57 57 58 59 59 60 60 59 59 60 60 59 59 60 61 61 63 63 62 62 62 62 63 65 65 66 65 65 64 65 64 64 66 65 64 64 64 64 65 65 65 65 65 65 65 65 65 65 65 65 64 64 64 64 64 63 64 64 64 64 63 63 60 61 61 63
18 12 10 8 10 10 8 10 28 47 48 49 48 47 47 50 51 52 54 55 55 55 55 55 55 56 56 57 57 57 56 57 57 57 57 58 58 58 58 58 58 58 58 59 59 60 60 60 60 60 61 61 61 62 63 64 65 65 65 64 64 64 64 63 64 63 63 65 65 64 65 65 65 65 65 65 65 65 65 65 64 64 64 63 64 64 64 64 65 65 64 63 62 61 60 61 61
12 16 9 8 9 10 9 16 35 42 43 45 43 37 40 46 50 51 53 53 53 54 54 54 55 55 55 55 55 56 56 57 57 56 57 57 57 58 58 58 57 58 58 58 58 59 59 59 60 59 59 60 60 61 62 63 63 63 63 63 62 62 62 62 63 62 62 62 63 63 64 65 65 65 66 65 65 66 65 64 64 64 64 64 64 64 64 64 63 63 64 63 62 62 61 61 60
11 10 11 10 10 12 11 13 34 39 38 41 39 35 36 46 47 50 52 51 52 52 52 53 54 54 54 54 55 55 55 55 56 56 56 56 56 56 56 57 57 57 57 57 57 58 58 58 58 58 58 59 60 60 61 62 61 62 62 62 62 62 62 62 63 63 63 64 64 64 65 65 65 64 65 65 64 64 64 64 64 64 64 64 64 63 63 63 62 62 63 63 63 63 62 61 60
7 11 12 11 11 11 11 10 21 30 34 39 36 39 40 40 46 49 51 50 50 50 51 52 53 53 54 54 54 54 54 54 54 55 55 55 55 55 55 56 56 56 56 56 56 57 57 57 57 57 58 58 59 60 60 61 60 60 59 59 60 60 61 61 62 62 63 63 63 63 63 64 65 66 64 64 64 63 63 63 64 63 64 64 64 64 64 64 64 64 64 63 64 63 62 61 61
6 10 12 13 11 11 11 12 15 18 33 33 36 39 37 37 44 49 49 47 49 49 50 51 53 53 54 54 54 54 54 54 54 53 54 54 54 55 55 55 55 55 55 55 56 56 57 57 57 57 57 58 58 59 59 59 59 58 58 58 58 59 60 60 61 61 61 62 61 62 63 63 63 64 65 65 64 64 64 63 63 63 63 63 63 63 63 63 63 63 63 63 62 62 62 62 61
4 10 13 13 14 13 12 14 12 24 30 28 33 36 31 31 44 46 48 48 47 48 50 51 52 53 52 52 53 53 53 53 53 53 52 53 53 53 54 54 55 55 56 57 56 56 56 57 57 56 56 57 58 58 58 58 57 58 57 57 57 57 58 59 59 59 59 60 59 60 62 62 62 62 63 63 63 64 64 64 63 63 62 62 63 63 63 63 64 64 63 63 63 62 63 62 62
13 8 7 10 12 17 17 19 22 28 25 26 31 34 32 32 42 44 44 45 48 48 49 51 52 52 52 52 52 52 52 52 52 51 51 51 52 52 52 52 52 53 54 54 54 55 55 55 55 55 55 56 56 57 57 57 56 56 56 56 56 56 57 57 57 57 57 57 58 58 60 61 61 61 62 62 63 63 63 64 63 62 62 63 63 63 62 63 63 64 64 63 63 63 62 63 62
5 8 8 9 16 13 16 15 23 20 20 22 30 29 32 26 37 45 45 47 48 49 48 50 51 51 51 51 51 51 51 50 51 51 50 50 50 51 51 51 52 51 52 53 53 53 54 53 53 54 54 55 55 55 55 56 56 56 56 56 56 56 56 56 56 55 55 56 57 57 57 58 58 59 60 61 61 63 64 63 63 62 62 61 62 62 62 63 64 64 64 63 63 64 64 63 62
4 8 10 11 15 9 8 6 6 10 16 17 25 26 25 34 37 43 45 47 48 49 49 50 51 50 50 50 50 50 50 49 49 50 50 50 50 50 50 50 51 51 51 51 52 53 53 52 52 51 52 53 54 54 53 53 54 55 55 55 54 55 55 55 55 54 55 55 56 55 55 55 56 57 58 59 60 62 63 63 63 62 62 62 62 62 62 63 64 64 64 64 64 64 64 63 63
5 4 14 9 7 5 5 11 15 13 17 22 27 28 32 39 44 46 46 47 48 49 50 50 50 49 49 49 49 49 49 49 49 49 49 49 49 49 50 50 50 52 52 52 52 52 52 52 51 50 51 53 53 52 52 52 52 53 54 55 55 54 54 54 54 54 54 55 55 54 55 55 55 56 57 58 59 60 61 62 63 63 63 63 62 62 62 62 63 63 64 64 64 64 64 64 63
4 9 10 14 14 11 2 9 5 9 11 25 36 23 27 38 39 47 47 48 48 49 49 49 49 49 48 48 48 47 48 48 48 48 49 49 49 49 50 49 50 51 52 53 52 52 51 51 51 49 50 52 53 52 51 51 51 52 52 53 54 55 54 54 54 55 54 55 54 54 54 54 55 55 56 56 56 58 58 60 61 62 61 61 62 62 62 62 62 62 62 62 62 62 62 63 63
5 8 12 13 11 22 8 15 15 13 14 23 34 33 41 41 47 47 47 48 48 49 48 48 47 47 47 47 47 47 47 47 48 48 48 49 49 49 49 48 50 51 52 52 51 51 50 50 50 49 50 51 52 52 51 51 51 51 51 51 51 52 54 53 52 52 52 53 54 53 53 52 53 54 54 54 54 55 56 57 57 58 59 60 60 61 61 62 62 62 61 61 61 62 62 63 62
13 7 9 10 17 21 17 12 24 20 24 28 35 40 42 46 47 46 47 47 47 47 47 46 46 46 46 46 46 46 47 47 47 48 48 48 49 49 49 48 49 50 49 49 50 50 49 49 49 48 49 50 51 51 51 51 51 50 50 50 50 50 51 51 51 50 50 50 52 52 51 51 51 51 52 52 52 53 53 53 53 55 55 57 57 59 57 57 59 61 61 61 61 62 62 62 61
10 4 7 12 19 26 20 11 14 13 15 26 38 36 38 38 34 47 46 46 46 46 46 46 46 45 45 45 46 46 46 46 47 47 48 48 48 49 49 50 50 49 48 48 48 49 49 49 48 48 49 49 50 50 49 49 49 49 50 49 49 49 49 49 50 49 49 49 49 49 49 49 48 49 49 50 49 50 50 51 50 50 51 53 56 52 51 51 51 53 54 57 60 62 62 62 62
6 5 9 8 9 11 17 19 8 7 22 30 35 38 38 37 38 44 44 45 45 45 46 45 45 45 45 45 45 45 46 46 47 47 47 48 48 49 49 49 48 48 48 47 48 48 48 48 48 48 48 49 50 50 49 48 48 48 49 49 49 49 48 48 48 48 48 47 47 47 47 47 47 48 48 47 47 47 47 48 47 48 48 49 52 48 47 47 48 50 51 52 52 54 59 61 62
11 8 6 14 15 19 15 14 16 16 21 31 33 37 33 40 40 43 44 44 45 44 45 45 45 44 45 45 45 45 45 45 46 46 47 47 48 48 47 47 46 46 46 47 47 47 47 47 47 47 48 48 48 48 48 48 48 47 47 47 47 48 48 47 47 47 46 47 47 47 46 46 46 47 46 46 46 46 46 46 46 46 46 47 48 46 45 45 46 47 47 48 49 50 52 55 60
13 13 13 8 17 21 14 22 11 14 23 27 31 31 35 40 43 43 44 44 44 44 44 44 44 44 44 44 45 45 45 45 45 46 46 46 46 46 46 47 47 46 47 46 46 46 47 46 46 46 46 47 47 47 47 47 47 47 47 46 46 46 46 46 46 47 46 46 46 47 46 46 45 45 45 44 45 45 45 45 45 45 45 46 44 42 44 44 43 43 43 45 46 47 48 51 54
15 15 14 11 13 11 7 14 18 23 26 28 30 29 36 41 45 45 44 45 45 45 44 44 44 44 44 44 44 44 45 45 45 46 46 45 44 44 45 45 45 45 45 44 45 45 45 45 46 46 46 46 46 46 46 46 47 46 46 46 46 46 46 46 45 45 45 45 45 45 45 45 44 44 44 44 44 44 44 44 43 43 44 45 43 41 41 41 41 41 41 42 43 43 44 46 50